Weather History for EGUW - October, 2012

Change the Weather History Date:

Thursday, October 25, 2012

  Actual Average Record
Temperature  
Mean Temperature 50 °F -  
Max Temperature 53 °F - - ()
Min Temperature 48 °F - - ()
Degree Days  
Heating Degree Days 14    
Moisture  
Dew Point 48 °F    
Average Humidity 85    
Maximum Humidity 100    
Minimum Humidity 70    
Precipitation  
Precipitation 0.00 in - - ()
Sea Level Pressure  
Sea Level Pressure 30.05 in    
Wind  
Wind Speed 11 mph ()    
Max Wind Speed 16 mph    
Max Gust Speed -    
Visibility 5.5 miles    
Events Rain    
T = Trace of Precipitation, MM = Missing Value Source: Averaged Metar Reports

Daily Weather History Graph

Daily Weather History Graph

Search for Another Location

Airport or City:

Trip Planner

Search our weather history database for the weather conditions in past years. The results will help you decide how hot, cold, wet, or windy it might be!

Date:

Astronomy

Oct. 25, 2012 Rise Set
Actual Time 7:39 AM BST 5:40 PM BST
Civil Twilight 7:04 AM BST 6:15 PM BST
Nautical Twilight 6:24 AM BST 6:54 PM BST
Astronomical Twilight 5:45 AM BST 7:33 PM BST
Moon 3:43 PM BST (10/25) 2:51 AM BST (10/25)
Length of Visible Light 11h 10m
Length of Day
10h 00m
Waxing Gibbous, 82% of the Moon is Illuminated
Oct 25
Waxing Gibbous
Oct 29
Full
Nov 7
Last Quarter
Nov 13
New
Nov 20
First Quarter

Hourly Weather History & Observations

Time (BST) Temp. Dew Point Humidity Pressure Visibility Wind Dir Wind Speed Gust Speed Precip Events Conditions
12:50 AM 54 °F 53 °F 94% 30.10 in 9 mi ENE 10.4 mph - -   Overcast
12:50 AM 55.4 °F 53.6 °F 94% 30.09 in 6.2 mi ENE 10.4 mph - N/A   Overcast
1:50 AM 55.4 °F 53.6 °F 94% 30.09 in 5.0 mi ENE 10.4 mph - N/A   Overcast
2:50 AM 55.4 °F 53.6 °F 94% 30.06 in - ENE 10.4 mph - N/A   Overcast
3:50 AM 54 °F 54 °F 99% 30.07 in 1 mi ENE 10.4 mph - - Rain Drizzle
3:50 AM 53.6 °F 53.6 °F 100% 30.06 in 1.0 mi ENE 10.4 mph - N/A   Drizzle
4:50 AM 53.6 °F 53.6 °F 100% 30.04 in 1.6 mi NE 11.5 mph - N/A   Light Drizzle
5:50 AM 51.8 °F 51.8 °F 100% 30.04 in 0.7 mi NE 9.2 mph - N/A   Light Drizzle
6:50 AM 52 °F 52 °F 99% 30.07 in 1 mi NE 11.5 mph - - Rain Light Drizzle
6:50 AM 51.8 °F 51.8 °F 100% 30.04 in 1.2 mi NE 11.5 mph - N/A   Light Drizzle
7:50 AM 51.8 °F 50.0 °F 94% 30.06 in 6.2 mi NE 10.4 mph - N/A   Overcast
8:50 AM 51.8 °F 48.2 °F 88% 30.06 in 6.2 mi NE 13.8 mph - N/A   Overcast
9:50 AM 51 °F 48 °F 85% 30.07 in 19 mi NE 12.7 mph - -   Partly Cloudy
10:50 AM 51.8 °F 48.2 °F 88% 30.06 in 6.2 mi ENE 12.7 mph - N/A   Mostly Cloudy
11:50 AM 51.8 °F 46.4 °F 82% 30.06 in 6.2 mi NE 15.0 mph - N/A   Overcast
12:50 PM 53 °F 46 °F 70% 30.06 in 31 mi NE 12.7 mph - -   Partly Cloudy
12:50 PM 53.6 °F 46.4 °F 77% 30.04 in 6.2 mi NE 12.7 mph - N/A   Mostly Cloudy
1:50 PM 53.6 °F 46.4 °F 77% 30.04 in 6.2 mi NE 13.8 mph - N/A   Overcast
2:50 PM 51.8 °F 46.4 °F 82% 30.01 in 6.2 mi NE 15.0 mph - N/A   Overcast
3:50 PM 51 °F 47 °F 80% 30.03 in 22 mi NE 12.7 mph - - Rain Light Drizzle
4:50 PM 50.0 °F 44.6 °F 82% 30.01 in 6.2 mi NE 15.0 mph - N/A   Overcast
5:50 PM 50.0 °F 42.8 °F 76% 30.01 in 6.2 mi NE 16.1 mph - N/A   Overcast
6:50 PM 49 °F 42 °F 70% 30.05 in 34 mi NE 12.7 mph - -   Partly Cloudy
6:50 PM 50.0 °F 42.8 °F 76% 30.04 in 6.2 mi NE 12.7 mph - N/A   Overcast
7:50 PM 48.2 °F 42.8 °F 82% 30.04 in 6.2 mi NNE 13.8 mph - N/A   Overcast
8:50 PM 48.2 °F 42.8 °F 82% 30.04 in 6.2 mi NE 12.7 mph - N/A   Overcast
9:50 PM 48 °F 42 °F 72% 30.06 in 31 mi NE 13.8 mph - -   Mostly Cloudy
9:50 PM 48.2 °F 41.0 °F 76% 30.04 in - NE 13.8 mph - N/A   Clear
10:50 PM 48.2 °F 41.0 °F 76% 30.04 in - NE 12.7 mph - N/A   Clear
11:50 PM 48.2 °F 41.0 °F 76% 30.04 in - NE 12.7 mph - N/A   Clear